Terug naar catalogus

STARLINK-3643

ActiefCommunicatieVLEO
NORAD 51992·PAYLOAD·🇺🇸 United States

Gelanceerd Mar 9, 2022 vanaf Cape Canaveral Space Force Station

Loading…

Volgende Passages (komende 24 uur)

TLE

VersSource: CelesTrak SupGP

Epoch: Sep 14, 2026, 22:01 UTC

1 51992C 22025AN  26257.91784722  .00031563  00000+0  93259-3 0  2574
2 51992  53.1573 235.7369 0001369  92.5443 246.1793 15.34372449    18

Volg STARLINK-3643 in realtime met AllMySat

Download on the App Store